Retour au catalogue

CZ-6A DEB

ActifPO
NORAD 60969·DEBRIS·🇨🇳 China

Lancé Aug 6, 2024 depuis Taiyuan Satellite Launch Center

Loading…

Prochains Passages (prochaines 24 heures)

TLE

FraisSource: Space-Track

Époque: Sep 14, 2026, 11:55 UTC

1 60969U 24140LU  26257.49660618  .00000194  00000-0  86695-4 0  9995
2 60969  89.0003 265.2930 0049177 276.4413  83.1178 14.18244526107726

Suivez CZ-6A DEB en temps réel avec AllMySat

Download on the App Store